Showing default

HUBBLE 6, 64562

Orbit data source: Space-Track

HUBBLE 6, 64562 is an American payload satellite in SSO that was launched on Mon, 23 Jun 2025 UTC via an FALCON 9 launch vehicle from the Air Force Western Test Range (AFWTR). Payload-class satellites include a variety of spacecraft equipped with specific instruments for various scientific and technological missions. These include communications satellites like Starlink; space stations such as the ISS; scientific satellites like the Hubble; Earth observation satellites from companies like Planet Labs, Umbra, and HawkEye 360; GPS; miniature CubeSats for education and research; and military/defense satellites.

Loading next visibility...
Identifier
64562, 2025-135AL
Orbit
SSO
Country
Flag of USUS
Related business
Manufacturer
Endurosat
Mission
Operational Commercial Communications
Bus & Motor
CUBESAT 16U, Unknown motor
Mass
22 kg wet, 22 kg dry
Launch date (UTC)
2025-06-23 (10 months ago)
Launch vehicle
FALCON 9
Launch site
Air Force Western Test Range (AFWTR)
Object type
Payload
Rocket body
Debris
Shape & HBR
Box + 4 Pan, 1.0 m
Radar Cross Section
0.326 m², Medium (>0.1 m² and < 1m²)

Expand to show TLE details & history
Last TLE update: 7 hours ago

TLE from 7 hours ago
0 HUBBLE 6
1 64562U 25135AL  26120.22538203  .00001711  00000-0  16711-3 0  9994
2 64562  97.7691 234.9273 0001224  99.2637 260.8721 14.93707692 46711
Epoch: 2026-04-30T05:24Z
TLE epoch observation values (Epoch: 2026-04-30T05:24:33.007Z)
Latitude
-0.00004°
Longitude
-64.38527°
Altitude
589.566 km
Speed
7.565 km/s
True Right ascension
15h 39m 42s
True Declination
0° 00' 00"
Sunlit
Object was in full shadow at epoch
Visualization orbit readout
Latitude
Unknown
Longitude
Unknown
Altitude
Unknown
Speed
Unknown
Apparent Right ascension
Unknown
Apparent Declination
Unknown
Sunlit
N/A
Visualization observer readout
Local Sidereal Time
19:57:13
Azimuth
Unknown
Elevation
Unknown
Doppler factor
Unknown
Orbital elements
Apogee altitude
584.256 km
Perigee altitude
582.551 km
Semi-major axis
6,961.541 km
Eccentricity
0.00012
Inclination
97.7691°
RAAN
234.9273°
Arg. of periapsis
99.2637°
True anomaly
260.85825°
Mean anomaly
260.8721°
Eccentric anomaly
260.86518°
Mean motion
3.73667 °/min
Orbital period
96.34 mins
BSTAR
0.00016711
Loading maneuver chart data...
Computing Atmospheric mass density...
Loading historical data...
Loading historical data...
Loading historical data...
Loading historical data...
Loading historical data...
Loading historical data...
Loading historical data...

Documentation

Showing up to 5 results
|